Regional Weather Roundup
Issued by NWS Nashville, TN

Home | Current Version | Previous Version | Text Only | Print | Product List | Glossary On
Versions: 1 2 3 4 5 6 7 8 9 10 11 12 13 14 15 16 17 18 19 20 21 22 23 24 25 26 27 28 29 30 31 32 33 34 35 36 37 38 39 40 41 42 43 44 45 46 47 48 49 50
000
ASUS44 KOHX 060710
RWROHX
MIDDLE TENNESSEE HOURLY WEATHER ROUNDUP
NATIONAL WEATHER SERVICE NASHVILLE TN
200 AM CDT MON JUL 06 2015

NOTE: "FAIR" INDICATES FEW OR NO CLOUDS BELOW 12,000 FEET WITH
NO SIGNIFICANT WEATHER AND/OR OBSTRUCTIONS TO VISIBILITY.

* THESE REPORTS ARE NOT UNDER NWS QUALITY CONTROL AND MAY NOT
  REPORT WEATHER SUCH AS PRECIPITATION AND FOG.


TNZ005>011-023>034-057-059-062>066-078-080-060800
...NORTHERN MIDDLE TENNESSEE...

CITY           SKY/WX    TMP DP  RH WIND       PRES   REMARKS
CLARKSVILLE    CLEAR     70  68  93 CALM      30.04S FOG
CROSSVILLE     PTCLDY    68  64  87 CALM      30.12F FOG
GALLATIN         N/A     69  32  25 CALM      30.07S
DICKSON        CLEAR     70  70 100 SW6       30.07S
LIVINGSTON     PTCLDY    70  66  86 CALM      30.09S
NASHVILLE      CLEAR     71  71 100 S5        30.05F
PORTLAND       CLEAR    N/A N/A N/A S3        30.05S
ROCKWOOD       CLOUDY    67  67 100 CALM      30.12F VSB<1/4
SMYRNA         CLEAR     70  70 100 S5        30.06F FOG
SPARTA         CLEAR     66  66 100 CALM      30.08S
$$
TNZ056-058-060-061-075>077-079-093>097-060800
...SOUTHERN MIDDLE TENNESSEE...

CITY           SKY/WX    TMP DP  RH WIND       PRES   REMARKS
COLUMBIA       CLEAR     70  70 100 S3        30.05F
LEWISBURG        N/A     68  66  93 CALM      30.07F VSB 3/4
MCMINNVILLE    MOCLDY    70  70 100 CALM      30.09S VSB 1
SHELBYVILLE    CLEAR     70  70 100 CALM        N/A
TULLAHOMA      CLEAR     66  64  94 CALM      30.10S
WINCHESTER     CLEAR     68  68 100 CALM      30.09S
$$


...KEY TO REMARKS...
VSB - VISIBILITY IN MILES
WCI - WIND CHILL INDEX
HX  - HEAT INDEX




USA.gov is the U.S. government's official web portal to all federal, state and local government web resources and services.